Date String (YYYY-MM-DD hh:mm:ss) UTC,Instrument flags,absolute air pressure of the measurement (hPa),sample flow rate (lpm),inlet stack bypass flow (lpm),air temperature of the measurement (°C),ambient temperature measured by the external sensor (°C),aerosol sample conditioner tube jacket temperature (°C),OPC LED temperature (°C),internal box temperature (°C),relative humidity of the measurement (%),span deviation,mass concentration of particles derived from Lorenz-Mie calculation of OPC scattering (μg/m³),mass concentration of particles derived from Lorenz-Mie calculation of OPC scattering (μg/m³),mass concentration of particles derived from Lorenz-Mie calculation of OPC scattering (μg/m³)
DateTimeUTC,F1_M11,P_M11,Q1_M11,Q2_M11,T1_M11,T2_M11,T3_M11,T4_M11,T5_M11,U1_M11,ZSPAN_M11,X2_M11,X0_M11,X1_M11
2024-03-03 03:00:00,SystemResetWarning,0811.2,5.00,000.00,023.9,022.9,000.0,032.4,025.6,10.6,0000.0,0001.85,0011.09,0000.70
2024-03-03 03:01:00,SystemResetWarning,0811.1,5.00,000.00,023.8,022.9,000.0,032.4,025.5,10.7,0000.0,0001.83,0009.66,0000.70
2024-03-03 03:02:00,SystemResetWarning,0811.2,4.99,000.00,023.8,022.9,000.0,032.4,025.5,10.7,0000.0,0001.85,0008.99,0000.70
2024-03-03 03:03:00,SystemResetWarning,0811.1,5.00,000.00,023.8,022.9,000.0,032.4,025.6,10.8,0000.0,0001.85,0008.90,0000.70
2024-03-03 03:04:00,SystemResetWarning,0811.1,5.01,000.00,023.8,022.9,000.0,032.4,025.5,10.8,0000.0,0001.92,0009.07,0000.69
2024-03-03 03:05:00,SystemResetWarning,0811.2,5.01,000.00,023.8,022.9,000.0,032.4,025.5,10.9,0000.0,0001.89,0008.64,0000.69
2024-03-03 03:06:00,SystemResetWarning,0811.1,4.99,000.00,023.8,022.9,000.0,032.4,025.5,11.0,0000.0,0001.81,0009.24,0000.68
2024-03-03 03:07:00,SystemResetWarning,0811.2,5.00,000.00,023.8,022.8,000.0,032.4,025.5,11.0,0000.0,0001.81,0009.36,0000.68
2024-03-03 03:08:00,SystemResetWarning,0811.1,4.99,000.00,023.8,022.8,000.0,032.4,025.5,11.1,0000.0,0001.79,0009.62,0000.68
2024-03-03 03:09:00,SystemResetWarning,0811.1,5.00,000.00,023.8,022.8,000.0,032.4,025.5,11.1,0000.0,0001.75,0008.92,0000.68
2024-03-03 03:10:00,SystemResetWarning,0811.1,5.00,000.00,023.8,022.8,000.0,032.4,025.5,11.1,0000.0,0001.67,0008.38,0000.68
2024-03-03 03:11:00,SystemResetWarning,0811.1,5.00,000.00,023.8,022.8,000.0,032.3,025.5,11.2,0000.0,0001.68,0008.48,0000.69
2024-03-03 03:12:00,SystemResetWarning,0811.1,5.00,000.00,023.7,022.8,000.0,032.3,025.5,11.3,0000.0,0001.66,0008.45,0000.70
2024-03-03 03:13:00,SystemResetWarning,0811.1,5.00,000.00,023.7,022.8,000.0,032.3,025.5,11.3,0000.0,0001.68,0008.36,0000.70
2024-03-03 03:14:00,SystemResetWarning,0811.1,5.00,000.00,023.7,022.8,000.0,032.3,025.5,11.4,0000.0,0001.68,0008.58,0000.71
2024-03-03 03:15:00,SystemResetWarning,0811.1,5.00,000.00,023.7,022.8,000.0,032.3,025.5,11.4,0000.0,0001.69,0009.32,0000.71
2024-03-03 03:16:00,SystemResetWarning,0811.1,5.00,000.00,023.7,022.8,000.0,032.3,025.5,11.4,0000.0,0001.69,0009.35,0000.72
2024-03-03 03:17:00,SystemResetWarning,0811.0,5.00,000.00,023.7,022.8,000.0,032.3,025.5,11.4,0000.0,0001.74,0008.69,0000.73
2024-03-03 03:18:00,SystemResetWarning,0811.0,5.00,000.00,023.7,022.7,000.0,032.3,025.5,11.5,0000.0,0001.72,0008.41,0000.72
2024-03-03 03:19:00,SystemResetWarning,0811.0,4.99,000.00,023.7,022.7,000.0,032.3,025.5,11.5,0000.0,0001.78,0008.94,0000.73
2024-03-03 03:20:00,SystemResetWarning,0810.9,5.00,000.00,023.7,022.7,000.0,032.3,025.4,11.6,0000.0,0001.77,0009.08,0000.73
2024-03-03 03:21:00,SystemResetWarning,0810.9,5.00,000.00,023.7,022.7,000.0,032.3,025.4,11.6,0000.0,0001.77,0008.86,0000.73
2024-03-03 03:22:00,SystemResetWarning,0811.0,5.00,000.00,023.6,022.7,000.0,032.2,025.4,11.6,0000.0,0001.77,0009.10,0000.73
2024-03-03 03:23:00,SystemResetWarning,0811.0,5.00,000.00,023.6,022.7,000.0,032.2,025.4,11.7,0000.0,0001.80,0009.95,0000.73
2024-03-03 03:24:00,SystemResetWarning,0811.0,5.00,000.00,023.6,022.7,000.0,032.2,025.4,11.8,0000.0,0001.80,0009.93,0000.73
2024-03-03 03:25:00,SystemResetWarning,0811.1,4.99,000.00,023.6,022.7,000.0,032.2,025.4,11.8,0000.0,0001.76,0009.63,0000.73
2024-03-03 03:26:00,SystemResetWarning,0811.1,4.99,000.00,023.6,022.7,000.0,032.2,025.4,11.8,0000.0,0001.71,0008.99,0000.72
2024-03-03 03:27:00,SystemResetWarning,0811.1,5.00,000.00,023.6,022.7,000.0,032.2,025.4,11.9,0000.0,0001.67,0008.30,0000.72
2024-03-03 03:28:00,SystemResetWarning,0811.1,5.00,000.00,023.6,022.6,000.0,032.2,025.3,11.9,0000.0,0001.63,0009.27,0000.72
2024-03-03 03:29:00,SystemResetWarning,0811.1,5.01,000.00,023.6,022.6,000.0,032.2,025.4,11.9,0000.0,0001.66,0009.79,0000.72
2024-03-03 03:30:00,SystemResetWarning,0811.0,5.01,000.00,023.6,022.6,000.0,032.2,025.3,11.9,0000.0,0001.73,0010.32,0000.72
2024-03-03 03:31:00,SystemResetWarning,0811.0,5.01,000.00,023.6,022.6,000.0,032.2,025.3,12.0,0000.0,0001.75,0009.96,0000.72
2024-03-03 03:32:00,SystemResetWarning,0811.0,4.99,000.00,023.6,022.6,000.0,032.2,025.3,12.0,0000.0,0001.80,0010.20,0000.72
2024-03-03 03:33:00,SystemResetWarning,0810.9,4.99,000.00,023.6,022.6,000.0,032.2,025.3,12.0,0000.0,0001.81,0010.04,0000.73
2024-03-03 03:34:00,SystemResetWarning,0811.0,4.99,000.00,023.5,022.6,000.0,032.1,025.3,12.0,0000.0,0001.80,0009.83,0000.73
2024-03-03 03:35:00,SystemResetWarning,0811.0,5.01,000.00,023.5,022.5,000.0,032.1,025.2,12.1,0000.0,0001.81,0011.10,0000.72
2024-03-03 03:36:00,SystemResetWarning,0811.0,5.00,000.00,023.5,022.5,000.0,032.1,025.2,12.1,0000.0,0001.81,0011.24,0000.72
2024-03-03 03:37:00,SystemResetWarning,0811.0,5.01,000.00,023.5,022.5,000.0,032.1,025.2,12.1,0000.0,0001.80,0011.79,0000.72
2024-03-03 03:38:00,SystemResetWarning,0811.0,5.00,000.00,023.5,022.5,000.0,032.1,025.2,12.1,0000.0,0001.84,0011.93,0000.73
2024-03-03 03:39:00,SystemResetWarning,0811.0,5.00,000.00,023.5,022.5,000.0,032.1,025.2,12.2,0000.0,0001.85,0011.26,0000.72
2024-03-03 03:40:00,SystemResetWarning,0811.1,4.99,000.00,023.5,022.5,000.0,032.1,025.2,12.2,0000.0,0001.84,0010.74,0000.72
2024-03-03 03:41:00,SystemResetWarning,0811.1,5.00,000.00,023.5,022.5,000.0,032.1,025.2,12.3,0000.0,0001.77,0010.12,0000.72
2024-03-03 03:42:00,SystemResetWarning,0811.1,5.00,000.00,023.5,022.5,000.0,032.1,025.2,12.4,0000.0,0001.78,0009.44,0000.72
2024-03-03 03:43:00,SystemResetWarning,0811.1,5.00,000.00,023.5,022.5,000.0,032.1,025.2,12.4,0000.0,0001.77,0009.13,0000.73
2024-03-03 03:44:00,SystemResetWarning,0811.1,5.00,000.00,023.4,022.5,000.0,032.1,025.2,12.6,0000.0,0001.81,0009.93,0000.73
2024-03-03 03:45:00,SystemResetWarning,0811.1,5.01,000.00,023.4,022.5,000.0,032.0,025.2,12.7,0000.0,0001.81,0009.11,0000.72
2024-03-03 03:46:00,SystemResetWarning,0811.1,5.01,000.00,023.4,022.6,000.0,032.0,025.2,12.6,0000.0,0001.74,0007.76,0000.72
2024-03-03 03:47:00,SystemResetWarning,0811.1,5.00,000.00,023.4,022.5,000.0,032.0,025.2,12.5,0000.0,0001.86,0008.03,0000.73
2024-03-03 03:48:00,SystemResetWarning,0811.1,4.99,000.00,023.4,022.6,000.0,032.0,025.2,12.4,0000.0,0001.97,0008.04,0000.75
2024-03-03 03:49:00,SystemResetWarning,0811.1,5.00,000.00,023.4,022.6,000.0,032.0,025.2,12.3,0000.0,0001.94,0008.08,0000.75
2024-03-03 03:50:00,SystemResetWarning,0811.2,5.00,000.00,023.4,022.6,000.0,032.0,025.2,12.2,0000.0,0001.94,0008.16,0000.75
2024-03-03 03:51:00,SystemResetWarning,0811.1,5.00,000.00,023.4,022.6,000.0,032.0,025.2,12.5,0000.0,0001.96,0008.37,0000.75
2024-03-03 03:52:00,SystemResetWarning,0811.1,5.00,000.00,023.4,022.6,000.0,032.0,025.2,12.7,0000.0,0002.06,0009.09,0000.77
2024-03-03 03:53:00,SystemResetWarning,0811.2,5.00,000.00,023.4,022.6,000.0,032.0,025.2,12.2,0000.0,0002.16,0010.60,0000.77
2024-03-03 03:54:00,SystemResetWarning,0811.3,5.01,000.00,023.4,022.5,000.0,032.0,025.2,12.3,0000.0,0002.20,0011.09,0000.77
2024-03-03 03:55:00,SystemResetWarning,0811.3,5.01,000.00,023.4,022.5,000.0,031.9,025.2,12.6,0000.0,0002.23,0010.61,0000.77
2024-03-03 03:56:00,SystemResetWarning,0811.2,4.98,000.00,023.4,022.5,000.0,031.9,025.1,12.8,0000.0,0002.25,0010.69,0000.78
2024-03-03 03:57:00,SystemResetWarning,0811.2,4.99,000.00,023.4,022.5,000.0,031.9,025.2,13.0,0000.0,0002.27,0010.74,0000.79
2024-03-03 03:58:00,SystemResetWarning,0811.1,5.02,000.00,023.4,022.5,000.0,031.9,025.2,13.0,0000.0,0002.29,0011.05,0000.80
2024-03-03 03:59:00,SystemResetWarning,0811.1,5.00,000.00,023.4,022.5,000.0,031.9,025.1,13.1,0000.0,0002.26,0011.44,0000.79
